リニア彗星

235P/LINEAR (2010)

English version
Home page
Updated on October 3, 2010

---------------------------------------------------------------------

・ プロフィール

符号 235P/2010 F2
検出日 2010年3月20日
検出光度 18.3等
検出者 R. H. McNaught (Siding Spring Survey)

・ 写真集

・ 軌道要素

Epoch 2010 Mar. 25.0 TT = JDT 2455280.5
T 2010 Mar. 21.63480 TT                                 MPC
q   2.7483175            (2000.0)            P               Q
n   0.12299585     Peri.  333.71424     -0.99730219     -0.03585411
a   4.0044458      Node   204.48696     +0.05158005     -0.96315164
e   0.3136834      Incl.    8.88993     -0.05222881     -0.26655842
P   8.01

・ 光度変化

        m1 = 12.0 + 5 logΔ + 10.0 log r

---------------------------------------------------------------------

軌道要素はM.P.E.C. 2010-F50に掲載されたものです。
光度グラフはComet for Windowsで作成したものです。

---------------------------------------------------------------------

Copyright(C) Seiichi Yoshida (comet@aerith.net). All rights reserved.